Theta_e
341 343 344 344 346 348 348 349 349 351 354 357 359 360 361 359 361 360 363 364 363 361 361 359 358 358 360 357 357 358 362 363 361 362 360 362 371 370 370 370 369 370 370 368 368 368 366 362 360 359 360 358 361 361 357 356 357 362 363 357 354 350 348 350 353 344 345 341 346 345 351 352 348 348 347 345 344 341 344 347 346 345 349 348 352
341 342 343 344 344 346 346 348 349 348 352 355 356 358 360 360 360 361 362 364 363 362 363 363 362 358 358 357 355 356 360 360 360 362 358 361 370 371 373 371 371 369 370 369 367 369 363 363 363 361 361 360 361 361 357 353 355 351 361 356 353 350 350 344 344 345 340 343 337 339 346 352 352 350 343 342 338 343 340 342 340 339 339 341 348
338 341 342 342 344 345 346 348 347 348 350 352 356 359 361 360 361 363 361 362 363 363 364 363 363 363 360 360 358 356 361 362 360 361 363 361 367 370 371 373 370 371 368 370 366 360 365 362 360 361 357 364 355 355 360 353 361 352 354 352 349 354 353 351 349 350 340 339 341 340 339 338 344 349 346 340 335 335 337 336 338 336 339 345 347
335 339 341 341 343 345 347 347 348 349 351 351 355 358 360 361 362 363 363 362 363 364 365 365 365 366 367 366 363 361 359 361 365 364 363 361 361 369 373 372 370 368 368 367 366 365 363 361 360 360 360 360 361 360 358 354 361 357 355 355 353 340 341 344 351 349 344 341 335 334 333 335 335 338 341 340 336 334 333 332 337 336 341 347 342
338 338 341 341 342 343 347 349 349 349 351 351 353 356 358 361 362 363 365 363 363 364 365 366 365 365 366 367 368 365 365 363 359 358 359 361 358 366 370 370 366 367 366 365 364 364 362 361 363 359 362 358 357 356 354 351 355 349 354 353 352 344 338 343 349 351 350 351 341 339 335 333 331 333 328 344 337 335 333 333 340 338 343 346 344
341 341 342 342 342 345 349 350 349 349 351 353 354 356 361 362 363 364 365 365 363 364 365 366 364 363 363 360 358 359 357 356 356 355 355 356 353 357 370 367 363 365 364 366 363 362 361 361 363 358 359 361 357 356 354 358 352 355 348 350 348 349 343 341 344 348 352 353 348 348 346 334 336 339 337 334 345 343 340 342 340 333 343 341 344
339 341 341 341 344 344 347 350 349 349 351 355 356 358 363 365 365 364 365 365 365 365 365 365 365 364 363 361 360 359 357 357 363 361 363 364 363 363 367 364 364 364 361 363 362 362 361 362 363 360 358 357 357 355 353 349 345 349 346 347 349 347 351 344 341 345 349 349 346 342 343 340 340 338 333 336 333 340 345 341 342 338 338 338 340
339 341 343 344 346 344 345 349 350 349 352 355 357 360 363 366 366 364 365 365 366 366 365 366 364 364 363 363 362 362 358 359 361 364 368 367 366 361 361 364 365 364 362 363 363 362 362 361 362 361 359 356 356 351 351 348 356 350 350 350 351 352 351 348 343 345 343 346 346 345 344 345 343 345 341 338 336 332 339 339 337 335 332 331 339
339 341 342 344 346 346 347 349 350 351 352 354 357 360 364 366 366 366 365 366 366 368 366 366 366 365 364 364 363 363 362 363 363 364 365 365 363 362 365 362 365 365 364 361 362 361 361 361 360 360 357 356 353 352 349 350 348 350 351 348 352 350 351 349 347 346 345 343 344 342 344 345 346 341 340 341 339 332 332 331 336 336 337 330 333
340 341 344 345 348 348 347 349 351 351 353 357 357 360 363 365 366 366 366 366 367 367 367 367 367 366 365 365 363 362 363 363 362 363 365 365 363 364 364 363 362 363 364 363 362 361 360 360 358 356 356 349 348 348 349 349 350 349 349 349 349 349 349 350 351 355 348 347 347 347 347 342 344 340 340 339 339 337 330 329 328 336 335 343 344
341 342 345 347 348 349 349 348 351 353 354 356 356 359 361 363 366 365 366 367 368 367 367 367 367 367 365 365 364 362 363 363 362 362 362 363 361 361 363 363 363 361 359 363 361 360 360 359 355 355 352 354 351 356 350 346 346 348 348 350 350 349 346 349 346 350 351 350 347 345 344 340 343 339 339 340 338 337 335 329 328 328 326 333 344
341 341 342 346 347 348 348 348 351 353 354 355 354 358 360 362 364 365 367 367 367 367 367 367 366 366 366 366 365 364 363 361 361 359 360 360 359 360 363 363 362 363 362 359 358 354 360 358 357 356 354 351 348 354 351 349 343 347 349 350 349 348 351 354 349 348 345 347 343 341 341 340 342 338 336 347 335 338 335 332 332 334 335 340 339
340 345 345 345 345 346 349 351 352 353 353 355 353 354 359 362 364 365 366 368 366 367 366 367 367 366 366 365 365 365 365 364 363 361 361 361 360 360 362 360 361 360 360 358 357 357 358 359 358 358 352 351 350 351 357 349 354 348 349 349 347 347 348 347 347 346 343 343 341 340 338 338 341 345 345 338 337 349 336 334 330 332 331 332 339
339 342 342 345 344 344 346 350 351 352 354 354 354 355 358 361 364 365 366 368 367 366 366 366 367 368 367 366 366 365 365 365 365 362 362 363 364 361 359 358 360 358 357 359 356 356 357 357 359 355 354 355 353 352 354 352 354 349 349 348 347 349 348 347 347 345 349 347 346 341 335 340 338 341 339 341 335 337 337 335 335 336 334 331 337
340 341 341 344 347 349 349 352 352 353 353 352 354 356 358 360 363 364 366 367 367 366 366 366 367 368 368 367 366 366 365 365 365 364 364 363 364 362 361 360 360 359 359 359 362 359 358 358 355 355 352 352 354 352 351 354 352 354 351 350 348 349 348 350 346 345 343 343 344 351 343 340 347 347 339 339 340 339 338 338 339 330 331 332 331
336 340 343 346 349 348 349 352 353 353 354 352 354 356 357 359 363 365 366 367 367 366 366 366 367 368 368 367 366 366 365 365 365 366 367 365 364 362 362 363 361 362 362 359 360 358 357 354 353 353 352 350 351 353 352 350 352 351 354 350 351 349 348 347 348 351 346 348 346 351 351 344 342 342 344 342 344 342 342 344 343 339 330 325 331
336 339 343 347 347 349 352 352 351 352 353 352 354 356 358 359 361 365 366 367 367 366 365 367 368 367 368 367 367 366 365 364 363 365 362 365 365 363 362 362 363 363 360 359 356 357 356 353 350 350 350 350 349 352 351 352 352 350 349 351 348 347 349 347 348 345 349 340 344 343 346 345 347 351 346 346 351 350 347 347 344 339 336 329 326
340 343 346 347 348 351 352 351 351 351 352 354 356 357 358 360 361 363 365 366 367 367 365 366 367 367 367 367 368 367 364 363 363 364 364 364 365 363 362 361 360 360 358 356 356 355 356 355 351 350 350 349 349 348 350 351 351 349 349 348 348 350 349 349 347 348 346 347 349 349 345 344 345 345 343 341 345 345 346 344 345 341 340 333 331
339 340 346 347 347 349 353 352 351 352 354 356 357 357 357 359 361 362 364 366 368 366 366 366 367 367 367 367 368 367 366 363 363 365 365 364 360 362 359 360 361 360 359 358 356 353 354 352 353 350 350 349 350 349 350 350 350 348 347 347 348 348 350 347 348 346 347 349 347 343 346 348 351 348 350 347 350 345 344 344 343 343 341 338 334
337 337 341 344 346 346 349 352 351 352 355 355 355 354 353 356 360 361 364 368 369 368 367 366 367 367 367 368 368 369 368 366 365 365 364 363 362 361 360 360 360 359 359 359 356 353 352 350 351 348 347 348 348 348 349 349 350 349 346 345 345 346 345 345 345 345 344 345 344 342 346 347 348 347 346 344 346 347 345 345 343 342 342 341 339
338 340 341 343 344 346 349 352 353 353 356 355 354 353 351 353 357 360 363 365 366 367 368 367 366 366 368 368 368 368 367 367 366 365 364 364 364 362 361 360 361 359 358 357 356 354 352 351 349 349 347 346 347 347 348 348 348 348 348 347 346 345 344 343 345 344 343 343 343 342 344 346 349 345 344 343 342 345 344 343 343 342 341 341 339
340 339 340 342 349 351 352 353 355 354 353 354 354 352 351 351 355 359 361 363 364 367 368 367 367 368 367 368 368 368 368 366 365 365 363 363 364 363 363 363 360 360 359 356 356 355 353 352 349 349 348 347 348 348 348 347 347 347 346 346 346 345 344 343 343 342 344 343 344 343 342 343 345 343 343 342 342 341 340 339 341 340 339 339 342
337 338 338 340 347 347 346 349 355 354 355 355 354 352 351 353 356 357 359 362 364 366 367 368 367 367 367 368 369 368 367 366 364 364 361 361 363 365 365 363 360 359 359 357 356 354 353 352 349 348 348 348 348 348 348 347 346 346 345 345 345 344 342 342 341 341 341 343 343 342 341 342 343 342 342 342 341 342 340 339 338 338 338 340 342
339 338 338 344 346 347 346 347 354 355 357 357 357 355 354 354 354 356 357 362 363 364 365 368 368 367 367 368 369 369 366 364 361 362 361 360 360 364 365 364 361 359 358 358 357 354 353 352 349 348 348 347 347 347 347 347 347 346 346 345 345 345 343 343 342 341 341 341 341 341 340 339 341 341 341 341 341 342 342 341 340 340 341 340 341
341 342 344 345 344 345 348 353 357 357 357 359 358 357 356 356 355 355 357 361 362 363 363 365 366 364 365 367 368 368 366 365 363 362 361 360 360 362 364 363 361 359 359 358 356 354 353 352 349 347 347 347 347 347 345 345 347 347 346 345 344 344 344 343 342 342 343 341 341 340 341 341 341 340 341 341 341 340 340 340 340 341 341 341 340
348 349 346 344 344 348 356 360 360 358 358 360 360 359 357 357 357 357 357 360 361 361 363 364 363 364 366 367 367 366 365 365 364 362 361 360 361 363 364 363 363 360 360 358 356 354 352 351 349 348 347 347 348 347 346 345 345 346 347 345 344 343 342 342 342 342 342 343 342 342 341 341 340 339 339 339 340 340 341 341 340 340 341 342 342
348 351 348 349 351 353 359 363 360 358 359 360 360 359 358 359 357 357 358 359 361 359 362 364 366 364 367 367 367 366 366 366 365 364 363 363 360 360 361 361 362 360 359 357 355 354 352 351 350 348 347 347 348 348 347 346 346 346 346 345 343 342 342 342 342 342 342 342 342 342 342 342 341 340 339 339 340 341 339 338 340 340 341 341 339
355 355 355 356 364 363 362 364 362 359 359 361 361 360 359 359 356 355 356 356 358 359 362 365 367 366 367 367 367 367 366 367 366 367 366 364 363 363 363 364 363 360 358 357 355 354 353 352 351 348 348 348 348 346 346 346 346 346 345 343 342 341 341 341 341 342 341 340 341 341 340 341 341 342 341 341 340 340 341 340 342 342 342 341 338
351 354 355 358 364 366 365 365 363 360 359 361 361 360 360 361 358 356 354 356 359 360 361 364 367 367 368 369 370 369 368 367 368 368 367 366 366 366 366 366 364 361 360 359 358 356 353 351 351 347 347 349 347 344 345 346 344 344 343 342 341 340 340 339 340 340 341 340 340 340 339 339 342 345 344 343 343 343 340 339 340 342 341 339 337
349 354 356 360 363 366 366 366 365 361 360 360 361 361 360 361 359 358 356 358 361 361 362 365 366 368 370 371 371 371 369 369 369 369 368 368 367 368 366 365 365 363 362 361 359 358 353 351 349 347 349 350 346 345 341 333 337 343 342 342 342 340 340 339 339 339 339 340 339 339 340 344 345 348 345 342 339 341 341 341 343 343 342 339 337
350 353 353 357 361 365 365 364 365 362 362 360 362 362 362 358 361 358 359 360 363 363 363 365 367 370 372 372 372 372 371 370 371 371 370 369 369 369 367 365 366 364 362 362 361 357 352 351 348 347 347 347 346 345 331 329 333 337 342 342 341 340 340 340 339 340 338 339 340 344 342 343 344 346 346 345 344 342 342 340 338 338 340 338 334
349 352 350 355 357 361 362 363 363 364 364 363 364 363 362 359 362 360 358 362 365 364 363 365 369 372 373 373 372 373 372 371 371 371 371 370 370 369 367 366 365 365 363 362 360 358 355 351 349 348 347 346 347 338 326 329 331 332 338 342 341 340 340 340 340 339 342 344 342 340 340 340 341 343 343 344 344 340 337 336 336 334 333 332 333
348 352 353 355 354 358 361 361 362 363 363 364 366 364 362 362 364 365 362 364 366 365 365 366 370 372 373 374 373 373 371 370 370 371 370 370 369 367 365 364 362 364 364 361 363 358 355 351 349 347 345 344 347 328 326 328 329 328 332 340 341 341 340 342 345 344 341 343 342 340 338 340 343 342 343 347 345 342 337 335 334 334 332 329 326
347 353 354 355 356 359 362 364 365 365 363 365 366 365 365 366 368 368 364 366 368 367 367 367 371 372 374 374 373 371 370 370 370 370 369 368 366 365 365 364 364 364 362 360 359 358 356 352 349 347 345 345 343 324 324 324 325 326 329 335 341 341 343 342 341 340 338 337 340 341 340 339 338 339 340 344 344 344 344 342 340 339 337 336 330
343 355 354 358 360 363 366 367 366 364 366 367 367 367 368 368 369 367 366 369 370 368 369 368 370 372 374 373 372 371 370 369 369 368 367 366 366 365 364 364 362 361 361 360 357 355 353 351 348 348 345 340 339 323 321 322 322 323 325 332 341 340 339 339 340 339 338 336 338 347 345 336 337 338 340 343 343 342 341 339 338 336 336 335 334
336 343 360 361 361 363 364 367 366 366 363 364 365 365 364 367 370 367 367 371 370 369 369 369 369 372 373 372 371 370 369 368 367 367 366 365 364 363 362 362 360 359 359 360 356 354 350 348 347 345 341 339 338 320 320 321 320 321 324 335 338 338 336 336 337 338 338 338 344 346 343 338 336 340 339 337 343 343 340 337 336 335 334 334 333
334 334 350 364 365 365 366 371 369 365 363 363 364 365 366 368 368 366 370 370 370 369 369 370 370 372 372 371 370 368 367 367 366 365 364 363 362 362 362 362 358 356 355 355 354 351 350 345 344 343 339 337 336 322 318 317 318 318 324 335 336 333 333 333 334 338 338 338 347 344 342 341 341 341 335 328 333 342 339 336 335 333 332 331 329
328 333 334 361 366 366 367 370 368 365 366 368 368 367 367 368 367 366 369 368 369 369 370 371 371 372 371 370 369 367 366 364 364 362 362 361 361 361 361 361 357 353 352 350 348 347 347 347 344 341 337 338 335 321 314 314 315 316 324 333 332 332 332 334 336 337 339 346 345 347 344 342 342 340 327 323 326 334 334 335 332 331 329 329 328
327 328 330 357 365 365 367 369 369 366 368 371 370 369 368 368 368 367 367 366 368 370 371 370 371 372 371 369 368 366 366 363 361 361 359 359 358 359 358 357 356 355 353 349 346 343 342 343 340 339 337 335 335 324 312 314 314 314 323 331 331 332 333 335 336 336 343 345 344 344 345 343 342 336 316 318 321 331 334 333 333 330 327 326 328
328 328 331 363 367 366 368 368 366 367 370 371 370 369 367 367 367 366 365 366 367 370 372 372 370 370 369 367 366 364 363 361 361 360 360 358 357 355 355 353 353 351 349 346 343 342 340 338 337 337 335 335 334 336 322 312 312 312 316 330 333 333 333 335 337 338 344 341 342 342 337 327 320 316 314 314 315 319 330 333 332 328 325 326 327
330 332 361 369 368 366 366 367 367 370 370 371 370 368 367 367 368 367 365 367 370 372 372 371 369 367 366 365 365 364 361 360 360 359 357 355 354 353 352 350 347 347 347 346 343 341 340 339 337 335 335 334 335 337 330 311 311 312 314 321 333 335 337 338 338 339 341 340 339 340 340 325 314 313 309 308 307 310 318 327 329 327 326 320 317
339 360 362 364 362 370 369 369 371 371 370 369 370 368 368 368 367 366 367 369 371 371 371 370 367 365 364 363 362 362 361 359 359 358 355 354 354 353 349 348 346 346 345 344 342 342 340 338 339 338 338 336 334 331 339 316 313 311 312 314 332 338 339 340 339 339 340 339 342 341 340 329 314 311 308 304 304 306 310 320 325 307 308 314 320
359 362 361 358 363 366 365 365 363 365 367 369 370 368 368 366 365 367 368 370 369 369 368 366 364 362 361 361 362 361 358 358 357 355 353 352 352 349 348 347 346 345 344 342 341 340 338 337 337 338 339 343 346 340 333 326 313 310 309 311 318 330 325 344 339 340 340 342 344 341 329 316 311 305 302 303 303 306 308 316 309 309 310 310 316
355 357 357 359 365 365 361 362 361 366 367 368 369 366 364 364 365 368 368 367 367 366 364 360 359 359 359 358 358 357 357 357 355 354 352 350 348 347 346 344 344 343 342 340 340 339 337 336 336 339 343 344 344 340 330 327 322 311 309 308 310 315 317 338 342 341 341 341 343 334 318 305 301 298 299 302 304 306 315 307 305 309 312 314 320
354 354 360 360 360 361 361 362 364 366 367 368 367 363 362 363 365 365 364 364 362 361 358 356 356 356 356 356 356 356 354 355 354 353 349 348 347 345 343 343 342 342 341 339 339 338 338 338 340 340 340 341 341 339 333 325 320 313 310 308 310 314 316 319 337 336 333 326 315 305 300 300 300 299 302 304 306 306 306 305 306 308 315 320 321
355 356 359 358 359 359 359 359 362 366 366 365 366 365 361 361 363 362 362 361 360 358 356 355 354 354 354 354 352 352 352 352 352 351 348 347 345 342 341 341 341 340 341 340 339 338 338 339 340 340 339 339 340 337 334 327 322 318 315 310 311 315 320 320 322 320 311 307 306 305 304 304 305 308 311 315 319 319 309 310 311 312 318 320 320
357 359 357 358 357 355 355 357 359 363 363 361 360 360 360 361 360 360 359 359 357 355 353 353 353 351 351 351 350 349 348 348 347 347 346 345 345 343 342 340 340 340 340 340 339 338 339 338 339 339 339 338 339 336 333 331 332 329 325 320 322 322 318 318 322 318 315 315 311 314 315 312 314 313 317 321 323 320 314 313 316 317 319 320 321
359 358 358 357 357 355 356 358 357 358 359 358 358 357 358 358 357 356 356 355 353 353 351 350 350 350 349 348 347 348 346 345 346 346 344 343 343 342 342 341 340 341 340 340 339 340 339 338 337 338 339 337 336 337 334 332 331 330 329 328 330 329 327 329 326 324 324 321 319 318 314 319 322 320 318 321 322 324 323 321 320 320 320 321 322
336 345 350 355 355 353 352 352 353 355 356 355 355 354 354 355 355 354 354 351 349 348 349 347 346 346 345 346 346 345 344 343 337 328 319 315 319 338 343 331 323 322 329 340 341 341 341 340 340 340 339 336 336 336 337 324 332 321 329 330 331 331 331 330 327 320 329 328 326 323 322 322 323 321 321 320 320 321 322 323 323 322 322 322 321
335 337 343 346 345 349 349 349 349 351 351 352 353 353 353 353 354 353 352 349 348 347 346 345 346 344 344 343 343 342 343 341 337 330 322 315 306 298 310 334 326 314 306 302 318 340 341 339 340 343 339 338 337 340 316 311 309 309 311 314 317 316 316 324 319 313 325 328 327 325 324 323 323 323 322 322 322 322 322 322 322 320 322 321 322
334 336 337 340 350 351 350 350 350 351 351 351 351 352 353 352 352 352 351 350 349 346 344 343 343 342 341 341 340 341 343 345 340 335 332 326 321 313 297 296 304 306 302 298 297 299 306 319 341 335 317 301 306 303 304 305 305 305 304 303 304 306 309 311 310 322 325 325 327 325 325 324 325 322 323 322 323 323 322 320 321 321 321 320 318
Wind_Speed
16 17 16 17 17 15 12 12 12 13 11 12 13 13 12 11 10 11 7 9 9 9 8 8 8 7 6 8 7 7 5 5 5 5 5 2 2 6 7 6 7 6 6 7 5 5 4 4 5 4 4 6 4 2 3 3 2 1 2 2 0 2 2 3 2 3 3 4 6 3 1 2 3 2 3 3 3 6 4 5 5 5 3 3 3
17 16 17 17 16 17 15 11 13 14 12 14 14 14 12 13 11 11 9 8 10 9 9 8 7 7 7 6 7 7 6 5 4 4 4 4 5 5 6 6 6 7 7 6 5 3 4 5 5 5 5 4 3 2 2 3 0 1 1 2 2 1 1 1 5 3 3 3 2 2 3 2 3 1 1 8 3 3 6 6 7 6 6 4 3
16 18 19 17 20 19 15 13 14 15 15 15 14 14 14 13 11 11 10 9 9 10 9 8 7 7 7 6 6 5 5 5 5 4 4 4 6 7 6 6 5 5 6 6 4 4 4 5 4 4 2 3 4 3 2 3 2 1 2 2 2 1 1 0 3 1 1 4 4 2 2 3 2 3 3 5 5 5 7 8 8 7 5 3 4
15 17 20 19 19 17 15 14 14 14 14 14 15 15 13 12 12 12 12 11 9 10 10 9 8 7 7 6 7 5 4 5 4 4 4 5 5 8 6 6 7 7 6 6 4 7 5 5 4 4 2 3 3 1 2 3 1 2 1 1 2 2 2 2 2 2 2 4 4 3 4 2 2 2 2 3 5 9 8 7 4 5 3 3 4
14 16 18 19 18 19 16 15 15 15 15 15 15 15 12 15 13 13 11 12 10 9 11 9 8 7 6 5 4 5 3 3 4 4 5 5 5 6 5 3 2 1 3 3 5 6 5 4 3 5 4 4 3 3 2 2 2 4 1 3 1 2 1 2 2 2 3 2 2 2 2 2 3 4 4 3 5 3 6 7 5 4 3 3 3
14 16 17 19 19 16 15 15 16 15 15 14 15 16 14 13 13 13 10 11 11 11 11 9 8 8 7 7 7 5 6 6 6 6 6 5 5 6 7 7 5 3 7 5 6 5 5 4 3 5 4 3 3 1 2 3 1 2 4 2 2 2 3 3 1 2 2 1 2 3 3 2 2 3 2 2 3 3 4 4 3 6 4 3 4
16 17 17 19 18 18 17 17 17 17 15 14 14 14 15 14 14 14 12 11 11 11 12 9 9 8 9 8 7 7 6 6 4 5 4 4 5 5 7 7 8 8 7 6 5 6 5 4 3 4 5 6 4 4 2 2 4 1 5 2 2 4 1 1 3 1 1 1 3 1 2 4 2 2 1 2 2 3 2 1 2 5 5 4 3
15 17 17 17 18 19 19 18 17 18 15 14 14 14 16 14 15 14 11 11 11 11 13 11 10 9 9 9 8 7 8 7 7 5 4 4 4 5 7 8 9 6 5 7 6 7 5 4 4 3 4 5 5 4 3 3 3 4 3 5 3 1 1 1 2 3 3 1 3 3 3 2 1 1 3 1 1 1 2 2 5 7 5 3 2
15 16 18 17 17 19 17 17 18 18 16 15 14 14 14 14 15 14 13 12 12 13 13 12 10 10 10 9 8 7 7 7 6 5 5 5 5 6 5 8 6 5 5 7 6 7 6 5 5 4 4 4 4 4 4 4 5 4 4 4 3 3 1 2 1 2 1 2 1 3 2 2 1 1 2 2 0 2 1 2 3 1 1 6 3
15 16 16 16 15 16 17 17 18 17 15 14 14 13 14 13 15 15 14 12 12 14 13 14 13 10 10 9 10 8 7 6 6 6 6 5 5 4 5 7 7 6 4 7 6 6 7 7 6 6 5 5 5 5 4 6 4 5 5 4 3 4 2 3 2 2 2 1 2 3 1 2 1 1 2 0 1 1 2 3 5 1 1 2 2
13 14 15 15 14 13 14 17 17 17 14 14 15 14 14 15 15 16 15 12 13 14 14 15 13 11 10 11 11 10 9 8 7 7 7 7 6 5 6 6 6 7 6 5 7 6 7 7 8 8 5 6 3 2 5 6 5 5 5 5 5 4 6 4 3 2 2 2 2 3 3 4 3 2 1 2 0 0 1 3 5 5 4 1 2
10 12 13 14 12 12 16 17 17 17 15 15 16 15 15 15 16 17 16 15 13 14 15 14 13 12 11 12 12 10 10 8 9 7 8 8 8 6 6 6 5 6 6 6 6 9 7 6 6 5 6 6 5 2 3 4 6 6 6 5 5 4 4 3 3 3 4 3 3 5 6 4 3 2 3 3 3 1 1 2 3 3 3 0 3
13 10 10 13 16 18 17 17 17 17 17 17 18 18 16 16 18 18 18 16 15 15 16 15 14 13 12 12 11 10 10 9 8 8 7 7 8 7 7 8 7 6 6 8 7 8 7 6 6 4 6 6 5 4 3 5 5 5 6 5 5 6 4 5 4 2 3 4 4 2 3 6 4 3 1 2 3 3 4 2 3 4 3 4 3
14 14 15 15 16 17 17 17 18 17 18 17 17 16 14 14 17 18 18 17 15 15 16 15 15 13 12 11 11 10 10 9 8 8 8 7 7 8 8 8 8 7 7 6 8 8 8 7 4 6 6 4 6 5 4 4 3 6 7 5 5 4 5 5 4 4 2 1 2 3 5 3 3 0 2 2 3 2 2 1 2 1 2 4 2
14 15 17 16 17 18 17 17 17 17 19 19 16 16 14 14 16 18 17 17 16 16 15 16 14 14 13 11 11 10 10 9 8 8 8 8 7 8 7 7 7 7 8 7 5 7 10 7 6 5 6 6 5 5 5 3 4 2 4 4 4 4 3 3 4 3 3 4 3 0 3 3 1 1 1 3 1 2 4 2 3 2 2 2 3
17 16 18 18 17 19 18 16 16 17 18 18 17 16 16 16 17 19 19 19 17 17 16 16 15 13 13 13 13 11 9 9 8 8 7 8 8 8 8 7 8 8 7 8 6 8 9 8 7 7 7 7 7 6 5 4 4 3 3 5 3 4 4 3 2 2 2 2 2 2 1 2 3 1 1 2 4 4 3 2 1 1 1 3 2
16 16 16 16 15 16 17 17 17 18 18 19 18 17 18 17 17 18 18 17 18 17 16 16 15 14 14 14 13 12 12 12 10 11 11 8 8 8 8 8 7 8 8 8 8 7 8 10 9 9 9 8 8 6 6 5 5 4 4 4 4 3 4 4 3 2 1 3 3 3 3 3 2 2 2 2 1 2 3 1 1 1 1 2 2
16 14 15 15 16 18 19 19 20 20 21 20 18 17 16 16 18 19 18 19 18 18 17 16 16 15 14 15 14 13 13 13 11 11 10 9 8 8 8 9 9 8 9 8 9 9 7 9 9 9 9 9 8 8 7 6 6 6 5 5 4 3 4 4 4 2 2 2 1 1 5 4 4 3 4 4 3 3 3 3 2 3 3 4 3
14 13 12 12 14 15 16 20 22 20 19 19 19 18 17 16 17 19 20 21 20 18 16 14 15 13 13 14 15 14 12 12 11 11 11 10 11 10 10 9 10 9 9 8 9 10 8 9 8 9 8 8 8 8 8 6 7 7 6 6 5 4 3 5 5 4 2 2 2 4 4 3 2 1 0 1 1 4 5 4 4 4 4 4 4
16 16 15 16 18 19 20 20 21 21 20 20 22 21 23 20 18 18 19 18 18 17 16 15 16 14 13 13 14 13 12 12 11 11 11 12 11 11 12 12 11 10 9 10 10 11 10 11 9 10 9 9 9 8 9 8 7 7 6 6 6 6 5 5 5 5 4 4 5 5 3 2 2 2 1 2 2 2 3 3 4 4 4 4 4
16 15 16 17 16 17 18 19 20 19 17 19 21 23 22 21 21 21 20 21 21 20 17 15 14 15 15 15 15 14 15 13 13 12 12 12 11 11 12 11 10 11 11 11 11 11 11 10 11 10 10 10 10 9 9 8 7 7 6 6 6 7 6 5 4 6 6 6 6 5 3 3 2 3 4 3 4 3 3 5 5 5 4 4 4
14 14 15 15 11 12 11 13 15 18 20 23 22 21 22 22 21 21 21 21 22 20 16 15 15 15 16 16 16 15 14 13 14 13 13 13 12 12 11 10 12 11 11 12 12 11 11 12 11 11 10 10 10 10 10 9 9 8 8 7 6 8 7 6 6 6 7 6 5 5 5 4 3 3 3 4 3 4 4 4 4 4 4 5 5
15 14 15 14 12 14 14 15 16 19 18 21 20 21 22 23 22 21 21 22 21 20 17 14 15 15 16 15 15 15 15 15 16 14 16 15 14 12 11 12 11 12 11 12 13 13 13 13 12 12 11 11 11 11 10 10 10 10 10 9 8 8 9 8 8 8 7 5 5 5 5 4 4 5 5 5 4 4 4 4 4 4 4 3 3
15 13 14 13 13 14 15 17 18 16 16 19 18 17 18 20 21 21 23 23 21 19 18 15 15 16 16 15 15 14 17 18 18 15 17 17 15 13 12 13 12 11 12 12 13 13 13 13 13 13 13 12 13 12 10 10 11 11 11 10 9 8 8 9 9 9 7 6 7 6 6 6 5 5 5 5 5 5 4 5 5 4 4 4 4
18 17 17 14 16 15 15 17 17 16 15 15 16 17 18 18 20 21 21 22 19 17 17 17 18 19 18 16 17 16 17 18 18 16 18 18 16 15 13 14 13 13 13 13 12 13 12 13 14 14 14 14 14 14 13 12 11 10 11 11 10 9 9 9 9 8 7 7 7 7 7 6 6 6 5 4 4 6 5 5 4 4 4 4 3
13 15 15 14 13 13 14 15 15 17 16 16 17 17 17 17 19 19 19 18 18 18 18 18 19 18 17 18 17 16 18 19 17 17 18 17 16 14 15 14 14 14 13 14 14 13 13 14 14 14 14 14 13 14 14 13 12 12 11 10 10 10 10 9 9 8 8 7 7 7 6 6 6 6 5 5 5 6 4 4 4 4 3 2 2
16 15 14 12 11 14 15 15 16 18 16 15 17 17 17 15 17 18 16 17 16 16 16 17 19 19 16 17 17 17 16 17 15 14 14 14 15 16 17 16 15 16 16 15 14 14 13 13 14 14 14 14 13 13 13 13 12 12 12 11 11 10 10 9 9 9 8 7 7 6 6 7 7 6 5 5 4 4 4 4 5 4 3 3 2
9 9 10 11 11 12 13 14 15 16 15 14 16 16 15 15 16 16 16 17 15 15 15 16 16 15 15 17 16 16 15 14 14 13 13 13 13 13 13 12 13 15 16 16 15 15 13 13 14 14 13 12 12 12 12 12 11 11 10 11 11 10 10 9 8 9 8 8 8 8 9 8 7 6 6 5 4 4 4 4 3 3 3 3 3
13 11 10 10 9 10 12 13 14 15 16 15 15 15 13 13 14 14 15 16 15 15 15 16 16 15 14 15 14 13 13 13 13 13 13 12 12 11 10 11 12 13 12 13 13 13 12 12 12 13 13 11 11 11 11 11 10 10 10 11 11 10 10 9 9 9 8 7 7 8 7 8 8 10 11 8 7 6 5 5 5 4 3 3 3
11 9 9 9 10 11 11 12 12 15 15 15 14 14 15 14 15 15 13 14 14 14 14 15 16 14 13 14 14 12 12 12 12 13 13 12 11 10 10 11 11 12 11 10 10 11 12 12 11 12 11 10 9 9 11 15 12 11 12 10 10 10 9 9 9 9 8 9 8 8 5 8 10 12 13 12 12 12 9 5 3 2 3 3 3
13 11 12 10 10 11 12 13 14 14 15 15 13 14 14 16 14 16 14 13 15 15 14 15 15 14 14 14 13 13 12 12 12 11 11 11 11 9 8 9 8 10 11 10 9 11 13 12 11 11 12 10 10 10 16 19 20 17 13 10 10 9 9 9 8 8 7 8 6 1 3 11 12 9 8 13 14 11 7 4 2 3 3 3 4
15 14 14 12 13 13 14 15 16 15 16 13 12 13 14 15 14 15 15 13 14 15 16 14 15 14 14 15 13 13 12 12 11 11 11 10 9 8 8 7 7 9 10 9 9 9 11 11 11 12 11 11 11 13 17 17 17 18 14 9 8 8 8 8 7 8 7 4 2 4 8 9 7 5 4 5 6 6 5 4 4 5 6 7 8
14 15 15 16 17 16 16 17 16 16 15 16 15 13 14 14 13 13 13 12 13 15 15 14 14 14 14 14 13 13 13 12 11 10 9 9 9 9 8 8 8 7 6 9 8 7 7 9 10 12 12 11 9 12 17 19 18 16 15 11 7 6 6 7 7 4 2 1 4 7 8 7 3 6 4 4 4 5 5 4 2 3 5 7 7
16 17 16 15 14 14 16 17 17 17 19 16 15 15 13 12 11 11 13 10 13 14 14 14 13 14 14 14 13 13 12 11 10 9 9 9 10 10 8 7 6 6 7 8 8 7 5 7 8 9 10 9 8 12 19 19 17 16 15 10 6 6 5 5 5 4 4 5 6 7 8 1 4 2 1 2 4 3 3 3 3 3 3 6 9
6 16 17 16 15 15 16 15 16 18 15 13 13 13 11 12 12 13 13 10 12 14 13 13 13 13 13 13 13 12 12 11 10 10 9 9 9 8 8 6 5 5 5 6 6 6 5 5 7 8 8 10 7 15 17 18 18 17 14 8 6 5 5 4 3 3 4 7 8 4 6 6 3 3 4 6 4 5 4 3 3 3 3 4 5
7 10 15 17 17 16 18 17 15 14 15 16 15 16 16 13 13 14 12 11 13 13 14 13 14 13 13 13 13 13 11 11 11 10 9 9 8 8 7 6 6 5 5 5 5 5 6 5 5 7 8 9 7 16 16 18 17 15 16 10 8 6 6 5 5 5 7 8 6 5 4 7 4 6 7 10 10 6 6 5 5 5 5 6 8
11 11 10 17 17 17 17 15 14 16 16 16 16 16 15 13 14 14 13 13 13 14 14 13 14 13 13 13 12 12 11 11 10 9 9 8 7 7 7 6 6 5 4 5 6 6 5 6 6 7 7 8 7 17 19 18 17 16 11 7 8 7 6 6 6 6 7 9 5 5 5 6 7 6 8 11 11 6 5 5 5 5 6 7 7
16 13 13 14 17 17 16 18 18 17 16 14 15 15 14 14 15 14 14 14 14 14 13 13 14 13 12 12 11 11 11 10 9 9 9 8 7 6 6 6 6 6 6 6 6 6 6 5 6 7 8 7 6 9 15 17 17 16 14 11 9 8 7 7 7 7 7 6 6 12 8 6 6 7 10 12 9 6 4 4 4 6 7 6 5
18 18 17 15 16 17 15 17 17 17 15 16 16 16 15 16 15 16 15 16 15 14 14 14 13 12 12 11 11 10 11 11 10 9 8 8 8 6 5 5 5 5 4 5 6 5 4 4 5 6 7 9 8 10 15 16 17 17 13 9 8 7 7 6 6 7 6 6 6 8 12 9 7 7 10 6 6 7 5 5 4 4 5 6 4
18 20 19 13 14 13 15 15 17 16 17 18 16 15 16 16 15 16 17 16 16 15 14 13 13 12 11 11 10 10 10 11 11 10 8 8 7 6 6 6 5 5 5 6 5 5 6 6 8 9 7 7 9 8 13 16 16 18 18 10 7 7 7 7 7 7 4 5 6 5 6 8 11 13 14 14 11 5 4 3 2 4 5 4 3
14 6 12 10 10 13 16 15 13 14 15 15 15 15 14 14 15 16 17 16 14 13 13 13 13 13 12 11 10 10 11 10 9 8 8 8 7 7 7 6 7 6 5 4 6 6 6 5 7 9 8 9 9 9 12 18 17 17 18 14 8 8 7 6 5 6 7 7 6 6 6 11 12 12 11 10 8 5 2 2 3 4 1 1 3
8 10 14 12 10 9 10 10 10 13 15 15 15 14 14 14 15 15 16 15 15 14 13 13 13 13 13 12 11 10 10 9 9 8 8 7 6 7 6 6 5 5 5 5 4 3 4 5 4 7 7 8 10 12 9 16 17 17 17 16 9 8 7 6 6 6 5 5 6 6 6 9 14 12 10 10 8 6 3 2 2 5 4 1 2
7 10 11 12 11 11 12 12 14 16 14 13 15 15 14 14 13 14 15 15 15 14 14 14 13 13 11 11 11 11 10 8 9 9 8 7 6 7 7 7 5 5 5 6 6 5 5 5 6 6 6 4 3 8 11 13 17 18 18 17 15 10 3 3 5 4 5 4 2 3 4 7 12 11 11 9 8 6 4 4 3 1 1 1 5
6 8 9 11 10 11 12 12 14 12 12 13 13 14 13 13 14 13 15 15 15 15 14 13 12 12 12 11 11 10 9 9 10 9 9 9 8 7 7 7 5 4 5 5 6 6 7 8 8 6 3 4 4 3 5 13 15 17 15 15 15 9 2 1 2 4 4 2 3 4 6 11 11 11 11 9 8 8 5 6 7 6 6 6 4
11 9 8 9 12 12 12 12 10 11 11 11 12 15 15 14 13 13 15 16 16 15 14 14 13 12 12 11 9 8 9 9 10 10 9 9 9 9 8 6 5 5 6 7 7 8 8 7 7 6 5 5 4 4 3 3 8 12 13 12 10 13 9 2 2 4 4 4 8 13 14 12 12 10 10 9 7 10 11 8 9 9 9 4 5
10 10 10 11 11 11 12 12 12 12 11 10 11 13 17 15 14 14 14 15 15 15 14 14 13 12 12 11 11 10 9 10 10 9 10 10 10 9 8 6 5 6 6 7 7 7 7 6 5 5 6 7 6 4 4 4 5 6 6 8 10 7 7 7 8 7 11 13 14 13 12 11 9 8 6 5 6 7 11 12 10 8 4 4 3
8 10 10 11 13 14 13 14 14 14 14 14 15 15 14 14 13 15 15 14 14 14 13 12 12 11 11 10 10 8 7 7 7 7 7 7 9 8 8 7 7 7 7 7 7 7 6 6 6 6 6 7 7 5 5 5 4 5 5 6 6 6 8 10 7 5 8 7 9 8 7 9 7 11 9 5 4 6 5 4 4 4 4 5 5
5 7 10 10 11 13 13 13 13 11 13 15 15 16 16 16 16 16 14 14 14 13 13 12 11 9 9 9 8 10 9 7 6 6 7 7 7 7 7 9 8 8 8 7 7 7 6 6 6 6 6 6 7 6 6 6 6 6 6 6 6 7 6 5 6 5 5 7 5 6 6 6 5 5 5 3 5 5 5 5 5 6 6 6 9
21 15 7 10 12 13 12 14 13 12 14 14 16 16 17 16 15 15 14 14 13 13 13 14 12 10 9 8 8 8 8 7 7 8 9 8 4 1 4 6 5 4 2 5 6 4 5 5 6 6 6 5 5 8 8 9 8 9 9 9 8 8 8 7 7 9 8 7 6 6 6 7 7 7 6 6 6 6 6 7 7 7 7 7 7
8 11 9 11 9 10 14 14 13 12 13 13 14 14 14 15 14 14 14 14 13 12 13 13 11 11 12 10 9 9 8 8 8 7 7 7 11 11 8 6 5 5 5 6 6 4 4 7 6 4 2 5 5 3 9 16 13 13 11 10 8 9 9 8 9 9 4 5 8 6 7 8 8 7 6 6 7 6 6 7 7 8 7 7 5
2 5 5 2 10 12 14 14 12 11 12 12 12 13 13 13 13 13 13 14 13 11 11 12 11 11 10 9 9 9 9 7 7 8 7 8 6 9 14 13 9 4 9 12 12 10 8 5 4 4 5 10 5 10 14 15 13 11 10 9 8 6 7 5 11 8 5 6 7 8 8 5 3 4 5 5 6 8 7 6 6 8 8 8 7
Wind_Direction
186 189 198 188 189 180 186 175 185 177 177 163 164 169 174 182 171 177 182 169 163 173 176 185 185 182 190 195 201 195 199 205 204 215 223 183 177 135 152 167 172 172 182 198 197 194 119 123 147 167 178 192 183 253 52 57 85 160 145 179 243 266 3 336 42 24 355 322 276 242 264 185 195 188 261 283 230 134 150 134 135 114 115 105 111
185 186 196 193 191 185 185 177 185 180 178 169 173 172 174 182 180 173 182 180 171 175 178 184 189 188 182 195 200 195 185 199 209 205 219 185 147 134 172 167 181 173 190 189 207 101 123 172 161 176 190 169 117 64 102 152 116 273 113 65 223 275 57 339 23 354 324 280 334 339 325 116 356 285 279 255 262 131 135 112 79 64 62 35 15
190 184 191 196 191 190 184 182 185 187 181 178 173 171 175 184 182 173 181 184 177 174 177 185 188 188 186 189 203 195 189 193 202 209 189 208 158 154 173 179 165 190 194 176 159 111 192 155 165 160 172 114 128 167 213 89 115 298 91 174 12 259 122 112 124 285 316 343 320 324 282 146 344 339 294 321 351 72 67 50 64 71 48 18 12
193 186 190 196 191 192 184 185 183 186 180 181 176 178 177 184 184 177 176 183 184 175 176 183 187 187 190 192 187 207 181 182 192 186 200 203 187 164 165 182 174 192 191 175 139 162 160 163 171 128 175 92 109 13 119 117 119 93 328 42 79 328 299 170 213 104 29 14 347 357 324 13 24 342 309 342 309 90 77 73 60 88 76 34 50
195 197 189 195 194 193 185 185 184 188 185 184 181 183 183 184 183 179 173 179 184 177 176 175 181 187 188 199 196 186 181 198 175 200 210 192 192 154 138 136 99 328 42 246 152 152 163 165 174 133 133 144 146 180 147 172 183 142 163 101 157 339 328 319 166 127 117 59 12 332 351 47 351 13 344 332 338 39 67 99 121 99 94 83 94
192 198 193 191 197 191 186 182 188 191 189 186 185 184 181 180 181 179 176 176 181 183 176 176 180 183 179 184 187 185 184 189 200 197 194 177 200 184 150 151 166 185 177 201 147 159 159 174 173 138 127 114 140 108 47 59 51 234 133 174 159 144 15 355 85 25 94 127 136 241 157 302 41 319 349 351 329 15 89 61 69 111 139 169 174
192 199 200 193 193 193 187 183 191 194 190 184 185 184 182 179 181 179 178 176 178 179 178 179 179 183 186 186 188 184 186 193 202 207 196 164 171 172 146 164 179 183 187 172 176 150 164 167 169 137 150 147 176 128 201 189 173 220 120 108 65 73 130 332 358 143 115 304 192 123 71 26 8 12 53 309 13 333 31 143 156 158 171 170 200
193 194 199 196 191 196 194 187 189 195 189 187 185 183 180 179 181 179 180 178 177 175 178 180 182 181 184 187 188 188 189 189 191 202 176 167 172 187 171 169 177 188 174 155 184 143 164 168 136 175 169 170 136 123 197 217 111 122 92 82 76 85 65 11 41 325 22 74 23 351 44 94 301 270 82 23 144 253 311 300 203 172 180 131 118
195 190 198 198 190 194 192 188 190 194 191 188 187 184 179 179 178 179 181 180 178 176 177 180 184 183 183 187 185 189 188 188 182 187 181 180 189 181 166 146 153 165 183 155 169 160 155 152 153 179 183 132 137 157 202 161 117 100 103 109 139 146 320 47 36 351 82 83 315 52 357 320 291 22 151 195 160 13 300 249 282 13 146 140 184
195 195 189 196 196 195 197 191 190 194 192 187 187 182 179 177 178 179 183 182 179 177 176 179 184 182 185 184 189 183 188 187 188 175 183 174 197 171 153 139 153 158 181 150 161 158 147 161 168 188 193 150 148 180 197 110 133 139 148 161 172 156 188 176 224 166 76 342 116 163 144 288 339 316 299 29 35 199 206 268 255 174 129 308 36
189 191 183 187 189 191 200 200 192 190 193 184 185 185 182 180 178 180 183 182 180 179 177 178 182 186 185 186 189 187 184 186 184 177 173 174 180 176 152 147 151 161 168 157 155 158 162 166 181 197 168 120 150 197 145 142 155 160 157 182 167 184 165 193 196 160 177 179 192 152 192 210 206 172 215 208 114 239 317 330 348 13 342 183 50
191 185 181 175 176 195 196 199 192 189 191 186 187 185 185 182 179 180 183 182 182 180 178 179 182 185 188 185 189 188 183 187 183 187 176 175 171 177 155 151 167 157 172 158 165 175 157 182 200 191 129 128 152 235 155 183 165 170 173 161 180 180 174 160 174 206 176 196 226 187 195 220 170 166 228 160 175 176 81 311 310 294 274 16 153
198 177 177 172 181 194 195 193 187 186 191 190 190 190 186 181 180 181 183 182 182 180 180 180 182 185 185 187 187 188 187 184 185 184 182 175 168 174 163 165 170 167 182 164 173 179 153 187 213 136 127 138 153 192 223 191 142 173 149 170 192 177 186 165 175 206 199 214 231 266 201 209 145 173 83 356 5 137 154 180 255 360 2 332 354
194 188 192 184 188 193 200 197 188 187 187 190 188 190 187 183 181 183 183 183 181 181 180 180 183 184 185 185 185 185 187 187 183 184 181 183 169 173 173 172 168 179 175 189 172 172 156 187 186 127 136 143 159 185 217 158 149 164 159 177 194 180 182 182 176 208 205 144 280 276 288 19 353 9 137 133 225 214 180 103 50 349 338 316 291
191 191 192 192 188 187 194 192 187 186 187 191 189 188 184 185 181 183 183 184 183 182 181 182 182 184 184 185 186 183 187 186 185 181 183 181 176 171 175 175 173 174 176 185 186 161 160 177 153 150 145 164 176 183 193 169 158 178 151 178 195 166 208 182 161 206 187 213 211 347 359 300 213 320 37 194 128 25 58 47 51 26 325 314 309
194 194 191 192 185 186 194 191 186 186 186 191 191 187 186 185 181 183 185 184 184 184 184 183 182 183 184 186 187 184 184 185 185 182 185 180 177 176 176 177 172 166 177 169 185 166 157 165 160 165 159 169 184 189 188 170 169 178 172 183 208 154 192 185 200 178 193 184 220 202 199 285 331 343 44 6 26 59 81 90 138 141 192 287 290
192 194 193 192 189 192 191 188 186 185 185 192 192 190 187 183 181 182 185 186 187 187 186 183 182 183 186 187 185 187 185 186 186 185 190 183 179 176 178 183 175 167 174 172 178 178 163 165 168 171 171 177 180 186 186 172 171 179 184 192 201 191 171 177 178 220 201 216 193 218 202 205 274 359 7 3 81 79 65 64 98 211 178 230 267
187 188 190 189 190 193 193 192 192 189 189 189 191 190 189 184 183 181 182 186 188 188 188 183 182 184 186 186 188 189 189 189 188 186 188 186 183 178 181 182 186 175 175 177 175 176 171 168 169 175 177 176 181 182 187 185 171 186 186 190 197 201 172 172 180 182 214 260 292 264 179 195 198 198 202 219 190 149 159 177 201 207 210 225 236
177 178 176 181 193 200 191 195 196 191 189 188 187 188 188 187 186 185 185 188 188 189 188 186 183 186 186 187 186 188 190 191 188 184 185 190 190 184 188 183 182 183 175 179 173 174 175 176 174 176 173 177 180 182 184 190 180 183 188 183 190 195 191 179 178 171 189 234 223 234 233 206 158 197 318 2 117 165 182 188 194 202 203 207 231
171 175 176 183 193 201 198 196 197 194 188 189 190 190 192 190 184 186 187 187 188 189 185 185 185 186 186 185 187 187 189 188 188 184 186 191 192 189 189 185 184 181 180 180 177 176 177 180 179 180 179 178 183 184 182 188 189 185 179 185 188 196 198 188 177 171 184 202 220 229 234 185 161 153 190 222 242 202 202 194 200 202 206 207 211
172 174 177 181 190 197 199 196 200 197 190 191 193 194 193 191 188 187 187 188 190 190 186 186 184 186 184 184 186 187 189 188 188 189 189 190 193 192 190 191 176 185 179 184 180 178 180 182 185 185 184 182 182 188 183 183 191 181 184 190 190 188 194 199 194 190 196 205 209 211 210 189 170 190 193 205 228 214 198 205 206 204 212 213 218
177 171 180 182 171 180 192 197 198 200 195 195 194 192 193 192 189 189 189 190 191 189 186 183 184 184 186 185 187 187 188 188 190 191 194 192 191 195 189 188 183 184 182 184 181 180 179 182 185 185 186 180 182 187 183 182 185 185 188 193 195 183 192 199 204 209 204 209 197 192 191 199 203 221 218 220 223 223 215 220 214 208 211 222 203
172 171 177 178 176 175 186 204 203 202 197 195 193 193 191 190 188 189 189 190 191 189 186 180 183 184 186 184 184 186 186 188 191 192 198 197 194 192 188 190 187 185 184 185 182 184 182 182 186 185 184 181 182 187 186 184 184 185 190 192 195 187 190 199 202 209 209 203 205 195 199 203 206 211 208 214 222 220 216 223 230 223 228 224 229
166 169 181 181 183 179 182 199 199 199 194 190 193 193 191 190 190 188 190 189 189 187 184 179 182 185 185 182 185 186 188 190 194 195 198 200 197 192 189 192 193 187 186 186 184 188 185 184 185 184 185 182 181 185 187 189 185 186 189 192 190 190 194 199 201 203 204 204 201 205 213 216 216 217 207 207 210 216 217 215 222 223 222 227 228
164 175 178 177 179 184 194 195 189 191 191 186 191 193 192 191 190 190 190 189 188 185 184 181 183 186 185 185 186 185 188 191 194 195 199 199 198 195 192 194 194 194 190 186 186 188 188 186 188 185 186 186 183 182 186 189 187 188 191 191 188 190 199 201 200 199 205 207 205 209 212 211 218 219 214 209 205 217 213 215 219 222 216 217 218
172 166 170 179 183 189 188 185 182 184 188 187 189 192 195 192 192 190 189 186 186 185 183 182 183 184 184 185 187 188 192 193 194 197 199 199 198 194 194 194 194 197 192 191 188 189 189 190 190 188 188 189 183 183 185 187 187 187 189 191 188 191 197 202 202 205 209 209 207 208 210 217 225 218 210 207 216 223 215 212 225 225 223 219 222
170 165 171 172 179 190 184 180 181 184 187 186 187 190 194 193 192 193 187 184 183 184 179 179 183 185 182 185 186 189 193 193 193 197 198 197 200 201 199 197 194 199 200 196 192 191 191 190 191 190 191 190 186 183 183 185 185 185 187 189 189 190 195 199 204 207 210 210 216 216 218 217 221 218 217 215 212 212 210 225 224 226 226 227 222
150 154 162 173 178 176 177 177 178 182 186 183 188 191 195 191 192 193 187 184 182 182 178 177 182 183 183 184 187 190 191 192 193 194 196 198 200 201 199 191 190 199 204 199 196 191 190 191 191 192 192 189 187 185 184 186 185 181 184 191 191 190 193 198 201 209 212 215 214 216 220 219 217 213 210 214 214 222 217 226 223 228 234 242 247
155 164 172 175 167 168 171 172 177 181 186 186 186 192 192 192 191 193 191 185 179 180 179 176 178 183 181 182 185 188 192 192 190 192 195 197 197 198 192 185 188 197 204 201 198 194 189 190 191 192 192 188 186 187 186 184 178 184 188 194 191 191 192 195 203 210 213 222 227 226 226 222 209 204 208 206 208 213 216 219 224 217 212 219 248
163 171 174 174 169 162 167 169 173 183 188 189 188 191 193 190 188 189 192 183 174 177 179 175 177 180 177 178 182 186 190 190 189 190 194 195 196 194 189 188 187 193 196 198 199 186 189 186 188 191 190 185 185 188 187 169 179 193 191 189 188 190 191 194 202 208 211 218 226 230 254 277 256 220 203 206 214 218 212 220 231 218 216 235 245
181 177 180 183 176 169 167 171 178 184 189 193 191 191 190 194 188 190 192 182 173 173 177 175 176 175 173 175 179 185 185 188 188 188 189 192 193 189 187 191 189 184 193 197 197 185 186 184 187 190 191 186 187 193 173 167 185 191 190 187 185 187 191 196 201 202 212 218 209 124 300 257 246 242 214 212 214 206 196 193 191 209 225 223 243
173 177 177 179 182 174 174 178 182 185 189 191 191 191 190 196 187 190 191 180 173 172 175 174 172 170 170 173 178 180 181 184 184 187 186 187 185 184 183 186 194 187 189 196 199 196 192 183 178 186 187 187 192 186 169 172 185 191 186 185 183 186 191 197 201 214 210 187 128 224 229 241 234 211 170 190 170 148 149 182 216 244 248 233 223
175 178 185 181 181 179 181 183 183 188 188 190 188 189 195 193 186 186 190 181 173 171 172 171 168 170 170 171 175 178 179 180 183 183 181 178 182 183 184 190 201 198 188 197 197 193 187 184 181 183 186 187 192 154 168 179 188 185 185 182 181 180 190 190 198 175 129 201 205 226 247 251 290 263 232 140 159 168 187 189 215 242 251 252 250
181 182 181 182 179 182 183 182 184 187 190 188 186 191 195 194 182 177 189 181 168 168 169 169 165 169 168 170 174 175 176 178 175 175 176 178 183 186 183 185 190 192 193 197 197 196 182 181 178 178 180 174 178 165 175 180 182 181 181 173 172 185 175 178 186 190 192 228 231 222 236 105 111 127 247 238 172 198 177 182 208 224 242 256 243
179 175 178 175 183 181 183 182 184 188 183 176 181 186 181 188 182 178 186 176 165 163 166 167 167 167 167 169 172 170 173 172 169 172 176 182 180 171 174 169 168 184 181 183 182 178 167 178 177 170 166 168 174 171 176 173 176 178 169 164 185 168 174 184 181 176 221 238 240 213 107 149 197 154 194 213 201 190 187 208 244 276 276 268 273
220 176 179 179 182 181 181 183 182 174 178 182 181 185 188 187 180 176 178 170 162 163 165 168 169 168 168 168 168 170 169 167 166 169 172 171 171 175 165 157 174 186 186 155 158 157 156 143 152 161 166 172 155 166 170 175 174 171 173 184 195 188 191 200 207 198 218 246 232 164 154 118 205 225 231 227 211 186 181 196 212 235 254 264 265
243 238 191 181 181 182 178 170 169 175 176 181 181 181 184 178 175 175 173 165 162 165 169 168 169 166 167 168 168 167 161 160 163 163 164 166 166 164 157 156 180 195 184 150 144 141 137 149 160 178 170 168 153 179 176 172 170 169 164 188 200 204 206 204 216 221 213 234 199 167 169 169 187 194 229 233 212 200 215 214 219 229 235 247 253
261 250 237 188 183 178 167 167 168 175 175 170 172 176 177 174 174 171 167 165 164 167 168 165 166 166 164 166 165 160 154 156 155 162 161 165 165 168 168 152 180 186 185 151 131 126 138 151 168 182 178 151 149 166 168 168 171 171 176 187 197 199 204 207 214 223 225 210 178 187 182 182 177 208 197 190 178 185 222 237 225 240 248 248 256
248 250 242 191 176 170 163 166 166 170 168 165 168 171 172 172 171 169 167 166 165 166 166 165 163 163 160 163 157 157 152 154 160 162 165 161 165 156 146 135 172 175 170 137 137 135 143 134 162 181 157 145 154 176 185 176 173 177 182 193 193 196 206 210 210 226 215 177 178 191 194 194 191 186 148 143 194 201 212 231 241 246 251 255 266
233 238 236 179 165 153 155 160 165 170 168 162 164 168 171 172 168 165 166 166 168 164 160 157 162 159 156 157 154 155 153 158 159 157 157 150 146 154 145 146 148 152 136 135 134 141 149 175 194 195 187 178 172 172 187 185 183 183 185 189 192 198 210 216 214 214 173 187 180 183 183 178 130 151 161 178 190 187 233 240 263 255 251 251 23
238 225 97 120 141 147 155 165 165 162 159 159 160 164 163 169 165 167 166 162 154 150 153 155 152 153 151 150 148 148 151 152 152 152 145 142 149 153 138 142 141 135 120 124 147 161 175 178 191 191 199 200 203 187 183 189 189 186 191 193 197 204 209 214 220 216 196 194 182 192 183 195 161 159 163 163 158 162 180 261 233 258 280 357 315
243 138 145 129 140 131 145 150 149 158 156 157 157 157 161 164 169 166 157 151 148 148 145 142 145 145 147 149 146 142 148 153 147 139 140 137 136 131 132 135 130 119 128 134 134 170 167 182 210 188 201 200 204 206 171 194 189 189 191 197 200 204 204 210 227 229 207 204 192 185 210 180 170 160 149 146 144 156 164 246 180 105 121 16 314
88 132 120 137 129 147 150 156 164 164 159 153 154 154 159 162 167 154 146 141 138 137 135 134 136 139 139 138 135 140 146 142 137 136 136 134 123 120 124 122 121 129 143 152 162 176 186 191 203 208 212 204 147 195 177 180 194 192 193 195 203 204 81 220 234 211 202 188 161 131 69 122 147 136 138 143 146 164 173 229 219 203 120 270 262
84 104 140 128 131 140 156 164 165 156 157 151 150 150 154 158 150 140 133 130 129 130 129 127 126 124 128 133 137 138 137 134 136 137 132 123 124 125 122 131 135 144 155 167 168 182 198 203 203 183 128 130 143 105 183 181 185 193 191 193 205 217 344 221 256 215 186 172 143 103 122 118 122 129 136 149 161 181 216 191 191 195 205 206 214
134 140 126 136 144 154 155 156 145 144 140 142 144 146 144 137 133 129 128 128 127 125 123 125 127 128 128 132 132 130 126 129 133 134 133 133 130 131 132 135 152 168 184 187 187 192 204 201 187 151 157 152 136 135 103 93 142 165 172 173 173 198 217 117 154 70 69 79 97 112 120 127 133 145 154 161 188 210 221 208 192 193 206 214 193
135 133 134 139 148 147 148 141 134 124 117 126 136 129 127 123 122 123 123 122 122 123 124 127 128 130 133 134 130 123 128 133 133 133 136 138 133 138 142 151 168 195 197 191 191 190 197 193 163 152 162 163 151 132 118 118 129 146 153 166 179 172 102 81 87 102 109 111 114 122 128 132 140 150 165 189 207 203 205 206 207 203 213 228 229
138 135 150 153 160 163 151 139 123 119 115 116 117 117 114 118 121 127 125 122 122 121 122 123 123 127 128 131 121 119 118 114 114 118 121 123 132 140 148 160 182 198 196 196 195 200 188 180 168 173 169 159 160 143 147 148 145 140 134 129 131 125 121 114 113 113 109 108 127 138 161 173 187 190 202 234 218 151 163 199 217 210 229 234 230
121 138 130 123 124 119 113 116 116 125 131 119 117 122 131 134 135 132 122 116 115 117 119 118 114 110 109 109 111 114 115 120 126 130 141 143 146 151 159 174 192 196 193 194 202 199 174 168 171 179 163 156 164 165 166 169 171 166 150 148 157 157 162 179 146 149 145 144 151 166 170 197 190 179 208 221 212 206 208 193 207 213 220 226 232
340 350 25 101 116 115 119 122 117 121 117 118 126 133 136 130 121 119 116 111 109 110 113 116 116 114 111 111 118 118 120 118 84 60 44 32 22 29 117 83 38 25 2 214 212 148 151 155 172 165 158 161 180 186 189 170 172 167 158 161 170 176 177 176 178 156 171 164 158 169 189 201 200 200 197 201 204 207 215 213 215 219 218 216 225
349 331 347 69 66 99 106 103 104 108 112 115 117 117 118 115 115 116 114 113 115 118 121 126 130 136 140 140 142 142 138 133 119 114 100 80 62 58 42 94 94 43 60 42 79 140 154 160 146 128 109 179 198 210 129 143 147 160 161 158 165 167 170 174 178 178 188 205 181 199 211 214 210 207 202 200 207 209 212 215 217 218 221 228 215
262 253 275 275 112 106 99 99 103 109 111 113 111 109 107 109 110 114 117 120 124 126 129 132 141 145 143 144 149 145 143 150 130 127 124 121 111 53 47 48 59 54 55 56 57 65 58 65 121 139 58 27 51 120 128 133 138 138 134 126 125 138 154 190 173 179 215 230 186 207 224 241 280 256 207 204 215 218 218 209 200 197 215 231 228